{"data":{"norad_id":57844,"epoch":"2026-09-20T21:56:47.795712Z","epoch_age_seconds":99373,"freshness":"FRESH","line1":"1 57844U 23141E   26263.91444208  .00000532  00000+0  26893-4 0  9991","line2":"2 57844  53.1594  95.4972 0001268  90.3130 269.8018 15.34384665170249","mean_motion":15.34384665,"eccentricity":0.0001268,"inclination_deg":53.1594,"raan_deg":95.4972,"arg_perigee_deg":90.313,"mean_anomaly_deg":269.8018,"bstar":2.6893e-5,"rev_number":17024,"period_min":93.848696017827,"perigee_km":461.88139511651,"apogee_km":463.61624376032,"semimajor_km":6840.8858194384,"source":"CELESTRAK","updated_at":"2026-09-21T09:00:33.712107Z"}}